Temp
28 25 23 24 24 24 25 25 24 24 24 24 24 23 23 23 22 21 21 21 21 22 22 22 21 21 21 21 21 21 21 20 21 20 20 20 20 20 20 21 22 22 20
28 25 23 24 24 24 24 24 24 24 24 24 24 23 23 23 22 21 22 22 22 22 22 22 22 22 22 21 21 21 21 21 20 20 20 20 20 20 21 21 22 21 20
28 25 23 23 23 23 24 24 24 24 24 24 23 23 22 22 22 21 22 22 22 22 22 22 22 22 22 22 21 21 21 21 21 21 22 24 22 20 20 20 21 20 20
28 26 24 23 23 23 24 24 24 23 23 23 23 22 22 22 22 22 22 21 21 21 21 22 22 21 21 22 21 21 21 21 20 22 24 25 24 20 20 20 20 20 19
27 27 24 23 23 23 24 23 23 23 23 22 23 22 22 22 21 22 22 22 22 21 21 21 21 21 21 21 21 21 20 20 21 22 24 24 24 21 20 20 20 20 20
27 27 23 23 23 23 23 23 23 23 23 22 22 22 22 22 21 21 21 22 22 21 22 22 21 21 21 21 21 21 21 21 22 24 23 23 25 22 20 20 20 20 20
27 27 23 23 23 23 23 23 23 23 23 23 22 22 21 22 21 21 21 21 22 22 22 21 21 21 21 22 21 21 21 21 23 24 24 24 23 21 20 20 20 19 19
27 26 24 22 23 23 23 23 23 23 22 22 21 21 21 22 22 22 21 21 21 22 22 22 21 21 21 22 21 21 21 21 23 24 24 24 22 21 20 20 19 20 19
27 26 24 23 22 23 23 23 23 22 22 22 21 21 21 22 22 22 22 21 21 22 22 21 21 22 21 22 21 21 21 21 24 24 24 24 22 21 21 21 20 20 19
26 26 25 24 24 23 23 22 23 23 22 22 21 21 21 21 22 22 22 22 21 22 22 22 21 21 21 22 21 21 21 21 23 24 23 24 23 21 20 21 20 19 20
26 26 25 24 24 23 23 23 22 23 21 21 21 21 21 24 24 23 23 22 22 21 21 21 21 21 21 21 21 21 20 22 23 25 24 23 22 21 20 20 20 20 20
26 26 26 25 23 23 23 23 23 23 23 24 24 23 24 25 25 24 24 22 22 21 21 22 21 21 21 21 21 21 21 23 23 24 25 23 22 21 20 20 20 21 20
26 26 26 25 25 24 25 24 22 22 23 24 23 23 22 23 23 24 24 23 23 23 24 23 22 23 22 22 23 21 22 23 23 24 25 23 22 22 21 20 20 20 21
27 26 26 25 25 25 24 24 23 23 23 23 23 22 22 22 22 22 24 23 22 24 25 24 23 24 23 21 22 21 21 21 24 23 24 23 22 22 21 21 21 20 20
27 26 26 25 24 24 23 24 24 25 25 24 23 22 22 22 22 22 21 21 22 23 24 23 24 24 23 22 21 22 22 21 22 22 24 23 22 22 22 21 21 21 20
27 26 26 24 24 23 24 23 23 24 23 23 24 24 22 22 22 22 22 21 21 23 25 24 23 23 23 23 23 22 21 22 22 23 23 24 23 22 22 21 20 21 20
27 26 26 25 24 24 23 23 23 25 24 25 24 23 23 21 21 21 21 20 22 23 22 22 22 22 22 23 23 23 22 22 22 23 22 24 24 23 22 21 21 21 20
27 26 25 26 25 24 24 24 24 25 23 23 23 24 23 22 22 21 21 20 23 23 23 24 24 24 22 22 23 23 24 22 22 22 22 23 24 24 23 22 22 21 20
27 26 25 25 25 24 23 24 24 24 24 25 24 25 23 22 22 21 22 23 23 23 24 24 24 24 23 22 23 23 23 22 21 22 22 23 22 23 24 24 22 21 21
26 26 25 25 24 24 23 23 24 24 24 24 24 24 23 23 22 22 22 22 22 23 24 24 24 25 23 22 23 23 22 21 21 21 23 22 21 22 22 23 21 21 21
24 25 25 24 24 23 23 24 24 25 24 22 23 22 21 22 21 21 22 22 22 22 23 24 23 22 24 23 22 24 23 22 21 22 23 22 22 22 22 21 22 22 22
24 24 24 22 23 23 24 24 24 23 23 22 22 21 21 21 21 21 21 22 22 21 21 22 22 22 24 25 23 25 24 25 23 22 24 23 23 22 22 22 22 22 22
25 24 21 23 23 23 23 22 22 22 22 23 24 23 22 21 21 21 20 20 20 20 21 21 21 21 22 24 22 23 24 25 26 24 23 24 24 23 23 24 22 22 23
25 24 23 22 22 22 22 23 23 24 24 23 23 22 20 21 20 21 21 20 19 19 18 19 20 21 20 21 21 23 23 24 25 25 23 23 24 23 23 24 24 24 23
24 23 23 22 22 22 22 22 24 23 24 23 22 21 20 21 20 20 20 20 20 19 19 18 18 20 19 20 21 23 22 23 23 24 26 24 22 25 25 24 23 24 25
24 23 23 22 21 21 21 21 22 22 22 23 21 22 22 22 22 21 20 20 19 19 20 20 19 19 20 20 19 21 22 23 24 24 24 23 23 24 24 25 25 25 25
Height
799 804 807 808 812 814 815 818 820 822 824 826 829 831 833 835 837 838 840 841 842 844 845 846 846 847 848 848 850 850 852 853 854 855 857 857 858 859 860 860 859 860 861
798 805 808 811 813 816 817 819 822 824 826 828 831 833 835 837 839 840 841 842 845 846 846 847 847 848 849 849 850 852 853 855 856 857 859 859 860 861 861 861 862 862 863
800 807 811 813 816 818 820 821 823 826 828 831 832 835 837 839 840 842 843 845 845 847 847 848 849 848 849 851 851 853 855 856 857 858 859 859 862 863 863 863 863 864 865
803 809 814 816 819 821 821 823 825 827 830 832 833 836 838 839 841 842 844 846 846 847 848 849 849 850 851 851 853 854 856 857 859 859 859 859 862 864 864 865 865 867 867
806 809 813 815 818 821 823 825 827 829 832 834 835 837 838 840 842 843 844 845 846 847 849 850 851 851 852 853 854 856 857 859 860 859 861 861 862 865 866 867 867 868 869
806 810 813 817 820 823 825 828 831 831 834 836 837 839 841 841 843 844 846 846 847 848 850 851 852 852 852 852 856 857 858 859 860 861 863 863 863 864 867 868 869 869 870
808 813 817 819 823 824 826 829 832 833 834 836 838 841 842 843 844 845 847 847 848 849 850 851 852 853 854 854 856 858 859 859 861 862 863 864 864 865 868 870 870 871 871
811 815 820 822 824 826 827 829 831 834 836 838 840 842 844 845 846 847 848 848 849 849 850 852 852 853 854 856 856 858 859 860 862 863 863 864 865 867 869 870 871 872 872
814 817 822 824 826 827 829 830 833 834 836 839 840 842 843 846 848 849 849 849 849 849 850 851 852 854 854 856 857 859 860 862 862 863 863 864 865 867 869 870 871 873 873
816 818 821 825 827 830 831 832 834 836 836 838 841 842 844 846 848 850 849 849 850 850 850 850 852 855 856 859 859 858 861 862 862 863 864 863 865 867 869 870 871 873 874
817 819 822 824 827 830 831 834 835 839 841 841 842 844 845 847 848 851 851 850 850 850 850 851 852 853 854 857 859 861 861 863 862 862 863 863 865 866 868 869 871 872 874
815 818 821 824 828 829 831 833 837 839 841 842 842 843 845 846 848 850 851 850 850 851 850 850 852 853 854 855 856 859 861 861 862 861 861 862 864 865 867 868 870 872 873
814 817 820 823 826 829 830 832 834 838 839 840 841 842 843 846 848 850 851 852 852 850 849 848 849 851 853 854 856 856 859 860 860 861 859 861 863 863 865 868 869 870 872
812 815 819 822 825 827 831 832 834 836 837 839 838 839 842 844 845 847 849 850 851 850 848 847 848 849 850 851 853 855 855 858 859 859 859 860 861 862 863 866 867 866 870
809 813 816 820 823 827 827 830 832 833 834 836 837 839 840 839 840 842 844 849 849 848 848 848 846 846 847 849 851 852 853 854 857 858 859 858 859 859 861 863 865 866 869
808 811 815 818 821 823 825 827 829 831 833 834 835 836 837 838 837 837 837 845 847 847 844 844 844 844 845 847 848 849 851 852 853 855 857 856 856 857 858 860 861 865 867
807 811 814 817 819 821 823 824 826 827 830 832 832 834 834 833 834 835 837 844 845 844 842 842 842 842 844 845 846 847 848 849 850 852 854 854 853 854 855 856 859 861 862
805 808 811 814 817 819 821 823 824 826 828 829 829 830 832 832 832 833 835 837 839 839 839 838 838 839 840 842 843 844 843 845 847 849 850 851 851 851 851 853 853 855 856
803 807 810 813 815 818 820 821 822 824 825 826 827 826 828 828 829 830 830 830 831 833 833 833 834 835 837 839 840 841 841 842 843 844 845 847 848 849 848 847 849 852 851
801 805 807 809 811 815 818 820 820 822 823 824 824 824 824 823 823 823 825 825 826 826 827 828 830 831 833 835 836 837 838 838 839 839 842 843 844 845 846 845 846 847 848
800 802 805 807 809 811 814 818 819 820 820 821 821 820 820 820 819 819 818 818 820 822 822 823 825 829 830 832 835 833 834 834 835 835 837 839 841 841 841 840 841 842 844
800 803 804 807 810 812 813 816 817 818 818 818 818 817 817 816 815 815 813 813 814 816 818 819 821 823 825 827 830 828 830 829 831 831 834 836 836 837 838 837 837 838 839
800 804 805 808 809 812 814 815 816 815 815 815 815 815 814 813 812 811 810 809 810 811 812 814 816 819 823 823 828 829 828 825 824 827 830 831 832 833 834 833 835 835 835
800 805 806 811 811 810 812 813 813 813 812 812 812 811 811 809 808 807 806 806 806 806 808 809 812 814 820 824 826 826 827 826 823 825 826 828 829 830 830 830 831 832 832
798 804 806 808 811 811 810 811 811 812 811 811 811 809 808 806 804 803 802 802 802 802 804 805 807 809 814 820 822 822 824 824 825 824 819 825 827 826 825 827 828 828 828
799 802 804 808 810 811 812 810 811 811 811 811 811 809 806 804 802 800 799 797 797 799 800 802 803 805 808 812 818 819 820 821 820 821 822 823 823 821 823 824 824 825 825
Wind_Speed
17 18 21 22 17 16 16 17 17 17 17 15 15 16 14 15 15 13 12 12 12 10 10 8 8 7 7 9 8 9 11 12 13 12 12 12 13 13 14 13 15 13 15
21 21 23 20 18 17 17 17 16 17 18 15 15 16 15 14 12 11 11 13 11 10 8 7 6 8 8 9 8 12 12 11 13 13 12 12 12 12 12 8 13 14 14
21 21 21 20 19 17 16 15 15 16 17 15 16 16 14 13 11 10 11 9 9 8 7 7 6 7 10 8 10 13 13 12 12 12 14 10 10 11 11 11 12 14 14
20 21 19 19 18 17 17 17 17 17 18 16 16 15 14 13 11 10 9 8 7 5 5 6 6 7 8 9 10 13 12 13 12 13 8 9 9 11 12 12 13 13 13
19 20 20 22 20 18 18 18 18 17 17 16 16 14 12 11 11 10 8 7 6 5 4 4 5 6 7 9 11 13 13 12 12 9 7 7 9 9 11 11 12 13 12
19 19 20 21 19 17 17 17 16 16 15 14 13 13 12 10 9 8 8 7 7 6 5 4 4 5 6 10 12 13 13 13 11 7 7 6 6 10 11 12 11 12 12
19 17 18 20 17 17 17 16 15 15 15 14 13 12 11 10 8 7 5 4 5 6 6 5 4 5 6 10 13 13 13 12 8 7 7 7 7 8 9 9 11 11 9
17 17 17 17 17 16 16 16 15 14 13 12 11 11 10 8 6 6 6 4 5 5 5 6 5 6 6 9 12 13 13 12 9 7 6 7 8 12 11 9 10 10 11
15 16 16 16 16 16 15 14 13 13 12 11 10 10 9 9 8 6 6 5 4 5 5 5 6 6 6 9 11 12 12 11 9 7 8 7 9 13 11 10 10 11 10
14 15 16 16 15 14 13 14 13 12 12 11 10 9 9 9 7 6 6 6 6 4 5 5 6 7 6 7 12 13 13 11 10 8 6 5 7 13 12 11 12 11 11
14 15 15 15 15 14 13 12 12 11 10 9 8 8 6 6 6 6 7 7 6 5 5 5 5 8 8 8 11 13 13 11 11 9 8 11 10 13 12 12 11 11 11
17 16 15 14 13 12 10 10 12 12 11 10 9 8 6 5 5 5 6 9 8 7 7 6 7 8 10 10 12 13 13 12 12 10 8 11 11 12 13 13 12 12 13
17 15 15 15 13 12 11 9 10 11 11 11 9 8 8 6 5 6 8 8 9 9 9 6 7 8 10 10 10 14 12 13 12 11 10 12 12 12 13 14 14 13 15
16 16 15 15 14 13 10 10 9 10 10 10 12 11 9 7 7 5 8 9 11 10 8 7 6 8 9 11 11 10 15 13 14 12 11 13 15 14 13 15 15 14 16
15 15 15 15 14 12 12 10 9 11 10 9 8 10 11 15 12 13 9 12 15 11 9 7 7 8 8 9 11 12 12 15 16 15 14 14 16 17 17 16 17 15 18
13 14 14 14 13 12 12 12 11 11 10 10 12 12 13 13 17 7 16 18 19 14 11 9 8 8 9 10 11 12 13 13 14 17 17 15 14 17 17 18 18 16 15
12 13 14 13 13 13 12 11 11 11 11 12 12 13 14 15 14 16 18 27 23 18 12 8 7 8 9 11 12 12 13 13 14 16 18 17 15 16 16 16 21 21 18
13 15 14 14 13 13 11 9 9 9 9 10 10 11 13 16 16 17 22 24 19 17 15 13 11 11 10 12 13 13 14 13 14 14 15 18 17 16 15 19 22 22 22
16 15 15 14 13 13 12 11 10 10 9 9 9 11 11 13 15 18 19 20 20 17 17 15 14 14 12 12 13 13 13 13 14 14 18 17 19 19 19 17 18 22 24
14 15 16 16 16 14 10 11 9 9 9 9 10 10 11 12 14 17 18 18 18 18 18 18 16 15 13 12 13 13 13 14 15 13 16 17 18 19 19 18 14 16 25
11 15 17 19 18 16 12 10 8 7 6 8 10 10 11 13 15 16 19 19 20 21 21 18 17 16 15 13 11 15 12 12 15 13 14 16 15 17 17 21 22 18 17
10 9 8 8 12 12 11 8 4 3 3 4 7 9 10 11 14 16 19 20 19 19 20 19 18 17 15 15 13 10 6 10 13 14 15 14 15 15 15 15 15 16 17
11 7 8 8 12 11 10 7 4 2 2 5 6 8 8 10 11 13 14 16 17 18 20 19 19 15 14 14 14 11 5 6 7 16 16 16 13 14 14 12 13 14 15
11 9 12 8 9 11 10 7 4 1 4 4 6 8 10 9 10 12 14 14 13 14 18 21 20 22 15 15 12 17 15 4 5 3 5 10 12 15 12 12 11 13 14
15 15 13 10 8 10 10 8 5 2 3 4 7 8 9 9 9 10 13 13 14 14 13 13 15 24 23 18 16 14 17 16 11 5 4 2 8 10 8 10 10 12 11
16 17 14 12 8 9 9 10 8 7 6 6 8 8 10 10 10 9 10 11 14 14 14 13 15 22 29 23 17 17 16 15 16 12 6 7 5 3 4 7 10 12 12
Wind_Direction
147 151 158 156 152 147 138 148 153 157 157 153 151 150 146 148 147 140 139 141 140 134 140 150 159 165 160 148 144 136 131 127 129 126 124 123 123 119 117 122 115 117 118
147 152 159 161 157 152 148 147 155 159 159 158 152 152 150 147 147 145 142 144 139 134 142 131 140 148 155 156 155 148 138 141 135 129 129 123 125 120 121 116 119 124 124
147 151 154 159 161 156 152 151 151 157 162 162 156 157 154 151 150 152 148 149 146 149 144 140 143 142 172 160 151 151 146 150 141 139 133 128 128 132 129 116 129 125 124
146 148 152 156 158 157 155 156 157 159 161 163 158 159 154 155 157 154 157 161 148 150 144 144 146 150 159 164 155 155 152 150 150 142 148 136 129 151 140 131 125 130 135
151 152 157 161 162 158 157 158 159 157 155 159 160 160 157 155 158 160 166 171 164 168 164 156 153 161 175 170 166 157 155 157 156 154 132 122 136 156 135 133 134 136 130
158 157 167 165 163 157 154 155 156 154 155 157 156 155 153 154 158 168 178 184 175 170 184 170 167 171 187 174 175 164 161 161 150 162 134 150 142 166 154 146 143 150 157
157 159 165 169 168 162 159 158 158 157 153 155 153 151 153 156 158 157 171 170 178 184 190 185 179 183 182 180 176 168 170 162 171 163 167 157 145 157 151 157 157 151 151
158 157 164 176 174 170 166 164 165 163 159 156 159 163 164 162 165 176 181 187 198 209 205 205 194 193 192 180 178 176 179 166 168 168 172 171 179 171 172 185 170 168 163
158 159 169 174 176 176 177 173 174 169 165 166 168 170 170 173 190 196 199 209 212 216 226 216 224 210 194 190 183 184 184 189 188 179 182 189 203 178 178 198 179 179 176
166 170 175 178 178 183 185 189 187 185 179 178 178 179 179 181 195 225 223 239 217 221 225 217 215 210 206 198 199 198 194 202 205 196 222 202 203 188 191 205 192 190 189
179 182 184 185 183 187 187 197 197 201 195 188 187 191 191 200 208 227 233 241 232 229 217 210 208 199 197 204 214 209 206 212 233 220 215 221 209 197 200 202 197 200 203
184 189 190 194 192 193 196 192 200 202 207 209 204 200 202 223 229 236 248 246 238 233 227 206 195 195 193 211 214 211 213 220 221 238 210 215 204 202 211 207 206 205 213
183 189 193 198 199 204 199 202 204 210 210 211 210 212 215 219 239 250 257 256 252 251 232 199 196 197 202 215 208 208 215 222 229 228 227 228 215 209 210 213 213 219 215
178 185 189 197 202 204 218 207 206 220 217 217 214 215 221 214 214 250 270 267 258 246 231 221 208 212 206 214 213 221 223 219 235 239 238 237 221 221 215 216 216 222 228
176 185 187 192 199 207 205 217 214 224 224 225 229 224 223 226 222 255 254 271 259 245 236 232 217 220 224 221 221 227 228 232 232 237 240 242 236 229 225 217 218 231 227
179 183 192 193 197 204 211 209 216 226 232 226 227 221 222 229 241 247 255 267 262 248 238 229 220 223 227 229 231 231 233 231 231 236 235 239 242 236 233 225 225 233 237
190 189 193 199 200 206 209 211 216 224 229 227 227 223 222 225 216 218 208 243 252 247 252 248 247 239 238 235 235 235 235 238 231 232 235 238 241 245 233 222 233 237 235
198 194 195 197 202 204 204 208 213 223 230 235 234 226 223 225 227 218 223 231 237 241 240 240 248 251 241 240 239 237 234 234 233 231 234 239 242 244 236 233 226 227 229
204 202 200 200 201 204 207 201 209 216 227 239 235 235 238 231 226 228 227 230 226 232 236 242 257 258 238 242 243 243 243 239 235 245 240 240 240 242 245 237 240 234 229
204 202 203 204 197 199 209 211 211 230 233 242 244 243 242 244 240 236 240 241 233 232 236 239 245 246 244 247 246 243 242 241 249 237 241 242 246 244 240 242 238 240 235
194 196 201 202 200 185 191 209 213 236 250 253 253 254 255 252 248 241 246 240 237 236 236 234 234 234 244 232 239 242 241 239 243 238 243 246 244 242 242 237 238 235 246
183 188 208 203 202 187 183 201 208 208 221 251 262 267 265 258 255 252 248 248 245 237 239 231 223 234 235 229 233 247 245 223 230 232 234 232 239 234 240 240 236 240 242
168 165 156 177 176 179 179 178 176 190 260 292 287 290 285 277 266 259 255 249 246 241 236 238 224 218 231 242 225 226 247 236 197 206 222 235 239 237 239 244 243 246 249
184 169 158 167 162 165 172 166 144 342 320 337 318 314 305 294 287 269 260 254 247 240 241 238 226 220 225 248 236 227 239 274 226 195 218 236 238 244 237 249 254 251 254
163 168 157 160 161 156 149 138 124 62 41 12 357 345 328 316 295 287 266 256 246 243 244 232 219 210 218 230 241 232 231 235 235 254 237 174 232 249 250 246 248 254 260
162 167 148 147 144 145 135 113 100 84 55 37 14 1 353 335 317 306 291 271 253 237 231 232 223 218 217 218 244 238 227 226 232 237 252 268 255 243 256 257 260 269 276